Home   Weather   Lisbon   Past weeks

Flag for Portugal Past Weather in Lisbon, Portugal — Yesterday and Last 2 Weeks

Now
63 °F

Passing clouds.


Feels Like: 63 °F
Forecast: 52 / 64 °F
Wind: 14 mph from Southeast

Location: Lisbon Portela Airport

Current Time: Dec 9, 2016 at 1:39:39 pm

Latest Report: Dec 9, 2016 at 1:00 pm


Visibility: N/A

Pressure: 30.30 "Hg

Humidity: 73%

Dew Point: 54 °F

Location of LisbonLocation

Past Weather in Lisbon — Graph

°F

Lisbon Temperature Yesterday

Maximum temperature yesterday: 61 °F (at 1:00 pm)
Minimum temperature yesterday: 50 °F (at 2:30 am)
Average temperature yesterday: 55 °F

High & Low Weather Summary for the Past Weeks

 TemperatureHumidityPressure
High66 °F (Dec 5, 2:30 pm)100% (Nov 25, 1:00 am)30.39 "Hg (Nov 25, 1:00 am)
Low46 °F (Nov 29, 7:30 am)51% (Nov 24, 1:00 pm)29.53 "Hg (Nov 25, 5:30 am)
Average55 °F89%29.95 "Hg
* Reported Nov 24 12:00 pm — Dec 9 12:30 pm, Lisbon, Weather by CustomWeather, © 2016

Note: Actual official high and low records may vary slightly from our data, if they occured in-between our weather recording intervals... More about our weather records

Advertising

Lisbon Weather History for the Previous 24 Hours

Scroll right to see more
 ConditionsComfort  
Time TempWeatherWind HumidityBarometerVisibility
12:30 pm
Fri, Dec 9
61 °FPassing clouds.10 mph72%30.33 "HgN/A
12:00 pm57 °FSunny.8 mph82%30.33 "Hg10 mi
11:30 am55 °FSunny.9 mph82%30.36 "Hg10 mi
11:00 am54 °FSunny.12 mph88%30.36 "Hg10 mi
10:30 am54 °FPassing clouds.10 mph82%30.36 "HgN/A
10:00 am54 °FPassing clouds.9 mph82%30.36 "HgN/A
9:30 am52 °FPassing clouds.9 mph88%30.36 "HgN/A
9:00 am52 °FPassing clouds.8 mph88%30.36 "HgN/A
8:30 am50 °FSunny.7 mph88%30.36 "Hg10 mi
8:00 am48 °FSunny.8 mph94%30.33 "Hg10 mi
7:30 am48 °FClear.8 mph94%30.33 "Hg10 mi
7:00 am48 °FClear.7 mph94%30.33 "Hg10 mi
6:30 am48 °FPassing clouds.7 mph94%30.33 "HgN/A
6:00 am48 °FClear.5 mph87%30.33 "Hg10 mi
5:30 am48 °FClear.5 mph87%30.33 "Hg10 mi
4:30 am50 °FClear.5 mph88%30.33 "Hg10 mi
4:00 am48 °FClear.6 mph87%30.33 "Hg10 mi
3:30 am50 °FPassing clouds.6 mph88%30.33 "HgN/A
3:00 am50 °FPassing clouds.7 mph88%30.33 "HgN/A
2:30 am50 °FClear.5 mph88%30.33 "Hg10 mi
2:00 am50 °FClear.5 mph94%30.33 "Hg10 mi
1:30 am50 °FClear.6 mph94%30.33 "Hg10 mi
1:00 am50 °FClear.7 mph94%30.33 "Hg10 mi
12:30 am50 °FClear.7 mph94%30.33 "Hg10 mi
12:00 am52 °FClear.7 mph94%30.36 "Hg10 mi
11:30 pm
Thu, Dec 8
54 °FPassing clouds.9 mph88%30.36 "HgN/A
11:00 pm54 °FPassing clouds.7 mph88%30.36 "HgN/A
10:30 pm55 °FClear.7 mph82%30.36 "Hg10 mi
10:00 pm55 °FClear.7 mph82%30.36 "Hg10 mi
9:30 pm55 °FClear.6 mph82%30.36 "Hg10 mi
9:00 pm55 °FPassing clouds.6 mph82%30.36 "HgN/A
8:30 pm55 °FClear.7 mph88%30.36 "Hg10 mi
8:00 pm55 °FClear.7 mph88%30.36 "Hg10 mi
7:30 pm55 °FClear.7 mph88%30.36 "Hg10 mi
7:00 pm55 °FClear.6 mph88%30.36 "Hg10 mi
6:30 pm57 °FClear.7 mph82%30.33 "Hg10 mi
6:00 pm57 °FClear.9 mph82%30.33 "Hg10 mi
5:30 pm59 °FClear.9 mph77%30.33 "Hg10 mi
5:00 pm59 °FSunny.9 mph77%30.33 "Hg10 mi
4:30 pm61 °FSunny.9 mph68%30.33 "Hg10 mi
4:00 pm61 °FSunny.9 mph68%30.33 "Hg10 mi
3:30 pm61 °FSunny.9 mph68%30.33 "Hg10 mi
3:00 pm61 °FSunny.10 mph68%30.33 "Hg10 mi
2:30 pm61 °FSunny.12 mph63%30.33 "Hg10 mi
2:00 pm61 °FSunny.10 mph68%30.33 "Hg10 mi
1:30 pm61 °FSunny.13 mph68%30.33 "Hg10 mi
1:00 pm61 °FSunny.14 mph68%30.33 "Hg10 mi
Weather by CustomWeather, © 2016

See weather overviewHow to use our weather pages